| time (UTC) | temp C | wind direction | speed KPH | gust KPH | rain 1hr cm | rain 24hr cm | rain mn cm | humidity % | barometer mb |
| 20260507065008 | 12 | 264 | 0.0 | 0.0 | 0.00 | 0.00 | 0.00 | 84 | 1020.8 |
| 20260507064521 | 12 | 264 | 0.0 | 0.0 | 0.00 | 0.00 | 0.00 | 84 | 1020.9 |
| 20260507064007 | 12 | 264 | 0.0 | 0.0 | 0.00 | 0.00 | 0.00 | 85 | 1020.9 |
| 20260507063508 | 12 | 264 | 0.0 | 0.0 | 0.00 | 0.00 | 0.00 | 85 | 1020.9 |
| 20260507063020 | 12 | 264 | 0.0 | 0.0 | 0.00 | 0.00 | 0.00 | 85 | 1020.9 |
| 20260507062505 | 12 | 264 | 0.0 | 0.0 | 0.00 | 0.00 | 0.00 | 84 | 1020.9 |
| 20260507062008 | 12 | 264 | 0.0 | 0.0 | 0.00 | 0.00 | 0.00 | 85 | 1020.9 |
| 20260507061506 | 12 | 264 | 0.0 | 0.0 | 0.00 | 0.00 | 0.00 | 85 | 1020.9 |
| 20260507061006 | 12 | 264 | 0.0 | 0.0 | 0.00 | 0.00 | 0.00 | 85 | 1020.9 |
| 20260507060504 | 12 | 264 | 0.0 | 0.0 | 0.00 | 0.00 | 0.00 | 84 | 1020.9 |
| 20260507060012 | 12 | 264 | 0.0 | 0.0 | 0.00 | 0.00 | 0.00 | 85 | 1020.9 |
| 20260507055506 | 12 | 264 | 0.0 | 0.0 | 0.00 | 0.00 | 0.00 | 86 | 1021.0 |
| 20260507055005 | 12 | 264 | 0.0 | 0.0 | 0.00 | 0.00 | 0.00 | 86 | 1021.0 |
| 20260507054519 | 12 | 264 | 0.0 | 0.0 | 0.00 | 0.00 | 0.00 | 86 | 1021.0 |
| 20260507054007 | 12 | 264 | 0.0 | 0.0 | 0.00 | 0.00 | 0.00 | 86 | 1021.0 |
| 20260507053507 | 12 | 264 | 0.0 | 0.0 | 0.00 | 0.00 | 0.00 | 86 | 1021.0 |
| 20260507053024 | 12 | 264 | 0.0 | 0.0 | 0.00 | 0.00 | 0.00 | 86 | 1021.1 |
| 20260507052506 | 12 | 264 | 0.0 | 0.0 | 0.00 | 0.00 | 0.00 | 86 | 1021.1 |
| 20260507052006 | 12 | 264 | 0.0 | 0.0 | 0.00 | 0.00 | 0.00 | 86 | 1021.1 |
| 20260507051521 | 12 | 264 | 0.0 | 3.2 | 0.00 | 0.00 | 0.00 | 86 | 1021.1 |
| 20260507051010 | 12 | 264 | 0.0 | 3.2 | 0.00 | 0.00 | 0.00 | 86 | 1021.2 |
| 20260507050507 | 12 | 283 | 0.0 | 0.0 | 0.00 | 0.00 | 0.00 | 86 | 1021.2 |
| 20260507050011 | 12 | 283 | 0.0 | 0.0 | 0.00 | 0.00 | 0.00 | 85 | 1021.2 |
| 20260507045506 | 12 | 283 | 0.0 | 0.0 | 0.00 | 0.00 | 0.00 | 86 | 1021.2 |
| 20260507045004 | 12 | 307 | 0.0 | 0.0 | 0.00 | 0.00 | 0.00 | 85 | 1021.2 |
| 20260507044517 | 12 | 307 | 0.0 | 0.0 | 0.00 | 0.00 | 0.00 | 85 | 1021.2 |
| 20260507044009 | 12 | 307 | 0.0 | 0.0 | 0.00 | 0.00 | 0.00 | 85 | 1021.2 |
| 20260507043503 | 12 | 307 | 0.0 | 3.2 | 0.00 | 0.00 | 0.00 | 85 | 1021.2 |
| 20260507043006 | 12 | 307 | 0.0 | 3.2 | 0.00 | 0.00 | 0.00 | 84 | 1021.2 |
| 20260507042503 | 12 | 304 | 0.0 | 1.6 | 0.00 | 0.00 | 0.00 | 84 | 1021.2 |
| 20260507042004 | 12 | 257 | 0.0 | 0.0 | 0.00 | 0.00 | 0.00 | 84 | 1021.3 |
| 20260507041506 | 12 | 257 | 0.0 | 3.2 | 0.00 | 0.00 | 0.00 | 84 | 1021.2 |
| 20260507041004 | 12 | 254 | 0.0 | 3.2 | 0.00 | 0.00 | 0.00 | 84 | 1021.1 |
| 20260507040504 | 12 | 283 | 0.0 | 1.6 | 0.00 | 0.00 | 0.00 | 83 | 1021.2 |
| 20260507040008 | 12 | 283 | 0.0 | 3.2 | 0.00 | 0.00 | 0.00 | 83 | 1021.1 |
| 20260507035504 | 12 | 263 | 0.0 | 3.2 | 0.00 | 0.00 | 0.00 | 83 | 1021.1 |
| 20260507035003 | 12 | 260 | 0.0 | 0.0 | 0.00 | 0.00 | 0.00 | 82 | 1020.9 |
| 20260507034518 | 12 | 260 | 0.0 | 0.0 | 0.00 | 0.00 | 0.00 | 82 | 1020.9 |
| 20260507034007 | 12 | 255 | 0.0 | 0.0 | 0.00 | 0.00 | 0.00 | 82 | 1020.9 |
| 20260507033505 | 12 | 255 | 0.0 | 0.0 | 0.00 | 0.00 | 0.00 | 82 | 1020.8 |
| 20260507033003 | 12 | 255 | 0.0 | 1.6 | 0.00 | 0.00 | 0.00 | 82 | 1020.9 |
| 20260507032502 | 12 | 228 | 0.0 | 3.2 | 0.00 | 0.00 | 0.00 | 82 | 1020.8 |
| 20260507032002 | 12 | 271 | 0.0 | 3.2 | 0.00 | 0.00 | 0.00 | 82 | 1020.8 |
| 20260507031503 | 12 | 241 | 0.0 | 3.2 | 0.00 | 0.00 | 0.00 | 82 | 1020.8 |
| 20260507031003 | 12 | 291 | 0.0 | 3.2 | 0.00 | 0.00 | 0.00 | 81 | 1020.8 |
| 20260507030502 | 12 | 342 | 0.0 | 3.2 | 0.00 | 0.00 | 0.00 | 82 | 1020.8 |
| 20260507030006 | 12 | 342 | 0.0 | 3.2 | 0.00 | 0.00 | 0.00 | 82 | 1020.7 |
| 20260507025502 | 12 | 258 | 0.0 | 3.2 | 0.00 | 0.00 | 0.00 | 81 | 1020.8 |
| 20260507025002 | 12 | 245 | 0.0 | 3.2 | 0.00 | 0.00 | 0.00 | 81 | 1020.9 |
| 20260507024512 | 12 | 323 | 0.0 | 3.2 | 0.00 | 0.00 | 0.00 | 81 | 1020.8 |
| 20260507024008 | 12 | 237 | 0.0 | 6.4 | 0.00 | 0.00 | 0.00 | 81 | 1020.8 |
| 20260507023505 | 12 | 286 | 0.0 | 6.4 | 0.00 | 0.00 | 0.00 | 81 | 1020.8 |
| 20260507023017 | 12 | 279 | 0.0 | 4.8 | 0.00 | 0.00 | 0.00 | 81 | 1020.7 |
| 20260507022506 | 12 | 304 | 0.0 | 6.4 | 0.00 | 0.00 | 0.00 | 80 | 1020.7 |
| 20260507022005 | 12 | 271 | 1.6 | 6.4 | 0.00 | 0.00 | 0.00 | 80 | 1020.6 |
| 20260507021509 | 12 | 210 | 0.0 | 4.8 | 0.00 | 0.00 | 0.00 | 80 | 1020.6 |
| 20260507021002 | 13 | 254 | 0.0 | 4.8 | 0.00 | 0.00 | 0.00 | 79 | 1020.6 |
| 20260507020504 | 13 | 303 | 0.0 | 3.2 | 0.00 | 0.00 | 0.00 | 79 | 1020.6 |
| 20260507020007 | 13 | 332 | 0.0 | 4.8 | 0.00 | 0.00 | 0.00 | 79 | 1020.6 |
| 20260507015502 | 13 | 358 | 0.0 | 6.4 | 0.00 | 0.00 | 0.00 | 79 | 1020.6 |
| 20260507015003 | 13 | 34 | 0.0 | 6.4 | 0.00 | 0.00 | 0.00 | 79 | 1020.5 |
| 20260507014508 | 13 | 231 | 0.0 | 4.8 | 0.00 | 0.00 | 0.00 | 79 | 1020.5 |
| 20260507014002 | 13 | 210 | 0.0 | 4.8 | 0.00 | 0.00 | 0.00 | 78 | 1020.5 |
| 20260507013503 | 13 | 259 | 0.0 | 1.6 | 0.00 | 0.00 | 0.00 | 79 | 1020.5 |
| 20260507013014 | 13 | 207 | 0.0 | 3.2 | 0.00 | 0.00 | 0.00 | 78 | 1020.4 |
| 20260507012508 | 13 | 340 | 0.0 | 3.2 | 0.00 | 0.00 | 0.00 | 78 | 1020.4 |
| 20260507012007 | 13 | 265 | 0.0 | 3.2 | 0.00 | 0.00 | 0.00 | 79 | 1020.5 |
| 20260507011533 | 13 | 235 | 0.0 | 3.2 | 0.00 | 0.00 | 0.00 | 79 | 1020.5 |
| 20260507011010 | 13 | 224 | 0.0 | 4.8 | 0.00 | 0.00 | 0.00 | 79 | 1020.5 |
| 20260507010505 | 13 | 300 | 0.0 | 4.8 | 0.00 | 0.00 | 0.00 | 79 | 1020.6 |
| 20260507010006 | 13 | 233 | 0.0 | 3.2 | 0.00 | 0.00 | 0.00 | 78 | 1020.6 |
| 20260507005504 | 13 | 348 | 0.0 | 4.8 | 0.00 | 0.00 | 0.00 | 78 | 1020.7 |
| 20260507005003 | 13 | 257 | 1.6 | 4.8 | 0.00 | 0.00 | 0.00 | 78 | 1020.6 |
| 20260507004511 | 13 | 270 | 1.6 | 4.8 | 0.00 | 0.00 | 0.00 | 77 | 1020.7 |
| 20260507004003 | 13 | 273 | 0.0 | 4.8 | 0.00 | 0.00 | 0.00 | 77 | 1020.6 |
| 20260507003503 | 13 | 284 | 0.0 | 4.8 | 0.00 | 0.00 | 0.00 | 77 | 1020.7 |
| 20260507003018 | 13 | 256 | 0.0 | 6.4 | 0.00 | 0.00 | 0.00 | 76 | 1020.7 |
| 20260507002503 | 13 | 283 | 1.6 | 6.4 | 0.00 | 0.00 | 0.00 | 75 | 1020.7 |
| 20260507002009 | 13 | 242 | 0.0 | 4.8 | 0.00 | 0.00 | 0.00 | 75 | 1020.6 |
| 20260507001519 | 13 | 273 | 0.0 | 6.4 | 0.00 | 0.00 | 0.00 | 75 | 1020.5 |
| 20260507001008 | 13 | 238 | 0.0 | 6.4 | 0.00 | 0.00 | 0.00 | 75 | 1020.6 |
| 20260507000506 | 13 | 334 | 1.6 | 6.4 | 0.00 | 0.00 | 0.00 | 76 | 1020.6 |
| 20260507000023 | 13 | 1 | 1.6 | 6.4 | 0.00 | 0.00 | 0.00 | 75 | 1020.6 |
| 20260506235508 | 13 | 301 | 0.0 | 6.4 | 0.00 | 0.00 | 0.00 | 75 | 1020.6 |
| 20260506235006 | 14 | 26 | 0.0 | 4.8 | 0.00 | 0.00 | 0.00 | 74 | 1020.6 |
| 20260506234510 | 14 | 181 | 0.0 | 6.4 | 0.00 | 0.00 | 0.00 | 74 | 1020.6 |
| 20260506234002 | 13 | 297 | 1.6 | 6.4 | 0.00 | 0.00 | 0.00 | 74 | 1020.6 |
| 20260506233503 | 13 | 250 | 1.6 | 6.4 | 0.00 | 0.00 | 0.00 | 74 | 1020.6 |
| 20260506233007 | 13 | 348 | 1.6 | 6.4 | 0.00 | 0.00 | 0.00 | 73 | 1020.6 |
| 20260506232503 | 13 | 265 | 3.2 | 9.7 | 0.00 | 0.00 | 0.00 | 73 | 1020.5 |
| 20260506232004 | 14 | 324 | 0.0 | 9.7 | 0.00 | 0.00 | 0.00 | 74 | 1020.5 |
| 20260506231516 | 14 | 341 | 0.0 | 6.4 | 0.00 | 0.00 | 0.00 | 73 | 1020.5 |
| 20260506231009 | 14 | 191 | 0.0 | 6.4 | 0.00 | 0.00 | 0.00 | 73 | 1020.6 |
| 20260506230506 | 15 | 198 | 0.0 | 8.0 | 0.00 | 0.00 | 0.00 | 73 | 1020.6 |
| 20260506230019 | 15 | 270 | 0.0 | 9.7 | 0.00 | 0.00 | 0.00 | 73 | 1020.6 |
| 20260506225507 | 15 | 229 | 1.6 | 9.7 | 0.00 | 0.00 | 0.00 | 72 | 1020.6 |
| 20260506225008 | 15 | 305 | 4.8 | 9.7 | 0.00 | 0.00 | 0.00 | 72 | 1020.6 |
| 20260506224529 | 15 | 303 | 3.2 | 8.0 | 0.00 | 0.00 | 0.00 | 71 | 1020.7 |
| 20260506224009 | 15 | 227 | 0.0 | 11.3 | 0.00 | 0.00 | 0.00 | 72 | 1020.6 |
| 20260506223508 | 15 | 200 | 3.2 | 11.3 | 0.00 | 0.00 | 0.00 | 71 | 1020.6 |
| 20260506223008 | 15 | 121 | 4.8 | 9.7 | 0.00 | 0.00 | 0.00 | 70 | 1020.5 |
| 20260506222504 | 15 | 208 | 3.2 | 11.3 | 0.00 | 0.00 | 0.00 | 71 | 1020.6 |
| 20260506222006 | 15 | 267 | 3.2 | 11.3 | 0.00 | 0.00 | 0.00 | 72 | 1020.7 |
| 20260506221514 | 15 | 182 | 3.2 | 11.3 | 0.00 | 0.00 | 0.00 | 71 | 1020.8 |
| 20260506221003 | 14 | 271 | 3.2 | 12.9 | 0.00 | 0.00 | 0.00 | 73 | 1020.9 |
| 20260506220506 | 14 | 176 | 1.6 | 12.9 | 0.00 | 0.00 | 0.00 | 73 | 1021.0 |
| 20260506220018 | 14 | 168 | 4.8 | 12.9 | 0.00 | 0.00 | 0.00 | 73 | 1021.0 |
| 20260506215504 | 14 | 160 | 4.8 | 11.3 | 0.00 | 0.00 | 0.00 | 73 | 1021.0 |
| 20260506215007 | 15 | 259 | 3.2 | 11.3 | 0.00 | 0.00 | 0.00 | 73 | 1020.9 |
| 20260506214521 | 15 | 197 | 3.2 | 11.3 | 0.00 | 0.00 | 0.00 | 73 | 1020.9 |
| 20260506214008 | 15 | 186 | 3.2 | 12.9 | 0.00 | 0.00 | 0.00 | 73 | 1020.7 |
| 20260506213508 | 15 | 231 | 1.6 | 14.5 | 0.00 | 0.00 | 0.00 | 73 | 1020.7 |
| 20260506213024 | 15 | 210 | 3.2 | 14.5 | 0.00 | 0.00 | 0.00 | 72 | 1020.8 |
| 20260506212510 | 15 | 174 | 1.6 | 14.5 | 0.00 | 0.00 | 0.00 | 72 | 1020.9 |
| 20260506212011 | 15 | 225 | 3.2 | 11.3 | 0.00 | 0.00 | 0.00 | 72 | 1020.9 |
| 20260506211513 | 15 | 202 | 3.2 | 9.7 | 0.00 | 0.00 | 0.00 | 71 | 1021.0 |
| 20260506211005 | 16 | 191 | 3.2 | 11.3 | 0.00 | 0.00 | 0.00 | 71 | 1020.9 |
| 20260506210503 | 16 | 242 | 1.6 | 11.3 | 0.00 | 0.00 | 0.00 | 72 | 1021.0 |
| 20260506210018 | 15 | 243 | 4.8 | 11.3 | 0.00 | 0.00 | 0.00 | 73 | 1020.9 |
| 20260506205506 | 15 | 188 | 3.2 | 9.7 | 0.00 | 0.00 | 0.00 | 73 | 1020.9 |
| 20260506205006 | 15 | 38 | 1.6 | 9.7 | 0.00 | 0.00 | 0.00 | 75 | 1020.8 |
| 20260506204522 | 15 | 302 | 4.8 | 9.7 | 0.00 | 0.00 | 0.00 | 75 | 1020.8 |
| 20260506204011 | 15 | 220 | 3.2 | 9.7 | 0.00 | 0.00 | 0.00 | 76 | 1020.9 |
| 20260506203505 | 14 | 295 | 1.6 | 8.0 | 0.00 | 0.00 | 0.00 | 79 | 1020.7 |
| 20260506203033 | 13 | 308 | 1.6 | 6.4 | 0.00 | 0.00 | 0.00 | 80 | 1020.8 |
| 20260506202509 | 13 | 224 | 3.2 | 6.4 | 0.00 | 0.00 | 0.00 | 80 | 1020.7 |
| 20260506202011 | 13 | 151 | 1.6 | 6.4 | 0.00 | 0.00 | 0.00 | 80 | 1020.8 |
| 20260506201528 | 14 | 126 | 1.6 | 4.8 | 0.00 | 0.00 | 0.00 | 80 | 1020.8 |
| 20260506201007 | 14 | 252 | 1.6 | 4.8 | 0.00 | 0.00 | 0.00 | 80 | 1020.9 |
| 20260506200507 | 13 | 250 | 0.0 | 4.8 | 0.00 | 0.00 | 0.00 | 82 | 1020.8 |
| 20260506200012 | 13 | 297 | 0.0 | 3.2 | 0.00 | 0.00 | 0.00 | 82 | 1020.9 |
| 20260506195503 | 13 | 192 | 0.0 | 6.4 | 0.00 | 0.00 | 0.00 | 82 | 1020.8 |
| 20260506195007 | 13 | 203 | 1.6 | 6.4 | 0.00 | 0.00 | 0.00 | 81 | 1020.9 |
| 20260506194519 | 13 | 255 | 0.0 | 3.2 | 0.00 | 0.00 | 0.00 | 82 | 1020.8 |
| 20260506194008 | 13 | 194 | 0.0 | 11.3 | 0.00 | 0.00 | 0.00 | 82 | 1020.7 |
| 20260506193508 | 13 | 176 | 1.6 | 11.3 | 0.00 | 0.00 | 0.00 | 82 | 1020.7 |
| 20260506193020 | 13 | 267 | 3.2 | 9.7 | 0.00 | 0.00 | 0.00 | 81 | 1020.7 |
| 20260506192507 | 13 | 252 | 1.6 | 8.0 | 0.00 | 0.00 | 0.00 | 82 | 1020.7 |
| 20260506192009 | 13 | 299 | 1.6 | 9.7 | 0.00 | 0.00 | 0.00 | 83 | 1020.7 |
| 20260506191507 | 13 | 79 | 1.6 | 9.7 | 0.00 | 0.00 | 0.00 | 82 | 1020.6 |
| 20260506191002 | 13 | 229 | 3.2 | 8.0 | 0.00 | 0.00 | 0.00 | 82 | 1020.6 |
| 20260506190507 | 13 | 233 | 3.2 | 6.4 | 0.00 | 0.00 | 0.00 | 81 | 1020.5 |
| 20260506190012 | 13 | 249 | 0.0 | 4.8 | 0.00 | 0.00 | 0.00 | 82 | 1020.5 |
| 20260506185504 | 13 | 168 | 1.6 | 6.4 | 0.00 | 0.00 | 0.00 | 82 | 1020.4 |
| 20260506185006 | 13 | 81 | 1.6 | 6.4 | 0.00 | 0.00 | 0.00 | 82 | 1020.5 |
| 20260506184516 | 13 | 169 | 1.6 | 6.4 | 0.00 | 0.00 | 0.00 | 83 | 1020.5 |
| 20260506184008 | 13 | 193 | 1.6 | 8.0 | 0.00 | 0.00 | 0.00 | 84 | 1020.5 |
| 20260506183508 | 13 | 258 | 1.6 | 8.0 | 0.00 | 0.00 | 0.00 | 84 | 1020.4 |
| 20260506183021 | 13 | 181 | 0.0 | 6.4 | 0.00 | 0.00 | 0.00 | 86 | 1020.4 |
| 20260506182507 | 13 | 195 | 1.6 | 6.4 | 0.00 | 0.00 | 0.00 | 86 | 1020.4 |
| 20260506182010 | 13 | 68 | 0.0 | 8.0 | 0.00 | 0.00 | 0.00 | 87 | 1020.3 |
| 20260506181524 | 13 | 59 | 1.6 | 8.0 | 0.00 | 0.00 | 0.00 | 86 | 1020.3 |
| 20260506181008 | 13 | 174 | 0.0 | 6.4 | 0.00 | 0.00 | 0.00 | 85 | 1020.3 |
| 20260506180502 | 13 | 299 | 1.6 | 6.4 | 0.00 | 0.00 | 0.00 | 85 | 1020.4 |
| 20260506180009 | 13 | 166 | 1.6 | 4.8 | 0.00 | 0.00 | 0.00 | 84 | 1020.3 |
| 20260506175503 | 13 | 276 | 1.6 | 8.0 | 0.00 | 0.00 | 0.00 | 84 | 1020.2 |
| 20260506175003 | 13 | 248 | 0.0 | 8.0 | 0.00 | 0.00 | 0.00 | 85 | 1020.3 |
| 20260506174515 | 13 | 286 | 1.6 | 8.0 | 0.00 | 0.00 | 0.00 | 85 | 1020.2 |
| 20260506174004 | 13 | 188 | 1.6 | 8.0 | 0.00 | 0.00 | 0.00 | 86 | 1020.2 |
| 20260506173504 | 12 | 284 | 1.6 | 4.8 | 0.00 | 0.00 | 0.00 | 88 | 1020.0 |
| 20260506173019 | 12 | 258 | 0.0 | 3.2 | 0.00 | 0.00 | 0.00 | 88 | 1019.9 |
| 20260506172503 | 12 | 295 | 0.0 | 4.8 | 0.00 | 0.00 | 0.00 | 88 | 1019.9 |
| 20260506172007 | 12 | 238 | 0.0 | 4.8 | 0.00 | 0.00 | 0.00 | 88 | 1020.1 |
| 20260506171524 | 12 | 1 | 0.0 | 3.2 | 0.00 | 0.00 | 0.00 | 88 | 1020.1 |
| 20260506171007 | 12 | 208 | 0.0 | 3.2 | 0.00 | 0.00 | 0.00 | 88 | 1020.2 |
| 20260506170508 | 12 | 256 | 0.0 | 3.2 | 0.00 | 0.00 | 0.00 | 87 | 1020.2 |
| 20260506170024 | 12 | 259 | 0.0 | 4.8 | 0.00 | 0.00 | 0.00 | 86 | 1020.1 |
| 20260506165510 | 12 | 240 | 1.6 | 6.4 | 0.00 | 0.00 | 0.00 | 86 | 1020.0 |
| 20260506165005 | 12 | 169 | 0.0 | 6.4 | 0.00 | 0.00 | 0.00 | 86 | 1020.0 |
| 20260506164514 | 12 | 113 | 0.0 | 4.8 | 0.00 | 0.00 | 0.00 | 86 | 1020.1 |
| 20260506164003 | 12 | 214 | 0.0 | 4.8 | 0.00 | 0.00 | 0.00 | 86 | 1020.2 |
| 20260506163504 | 12 | 198 | 1.6 | 4.8 | 0.00 | 0.00 | 0.00 | 87 | 1020.2 |
| 20260506163029 | 12 | 181 | 0.0 | 3.2 | 0.00 | 0.00 | 0.00 | 87 | 1020.2 |
| 20260506162505 | 12 | 196 | 0.0 | 3.2 | 0.00 | 0.00 | 0.00 | 88 | 1020.1 |
| 20260506162010 | 12 | 212 | 1.6 | 3.2 | 0.00 | 0.00 | 0.00 | 88 | 1020.0 |
| 20260506161523 | 12 | 307 | 0.0 | 3.2 | 0.00 | 0.00 | 0.00 | 88 | 1019.9 |
| 20260506161007 | 12 | 229 | 0.0 | 4.8 | 0.00 | 0.00 | 0.00 | 89 | 1019.9 |
| 20260506160507 | 12 | 161 | 1.6 | 4.8 | 0.00 | 0.00 | 0.00 | 89 | 1019.9 |
| 20260506160023 | 12 | 169 | 0.0 | 4.8 | 0.00 | 0.00 | 0.00 | 90 | 1019.9 |
| 20260506155507 | 12 | 66 | 0.0 | 4.8 | 0.00 | 0.00 | 0.00 | 90 | 1019.9 |
| 20260506155009 | 12 | 217 | 1.6 | 4.8 | 0.00 | 0.00 | 0.00 | 90 | 1019.8 |
| 20260506154535 | 12 | 181 | 0.0 | 4.8 | 0.00 | 0.00 | 0.00 | 90 | 1019.8 |
| 20260506154007 | 11 | 160 | 1.6 | 4.8 | 0.00 | 0.00 | 0.00 | 90 | 1019.7 |
| 20260506153503 | 11 | 171 | 1.6 | 4.8 | 0.00 | 0.00 | 0.00 | 90 | 1019.7 |
| 20260506153011 | 11 | 121 | 1.6 | 4.8 | 0.00 | 0.00 | 0.00 | 91 | 1019.7 |
| 20260506152503 | 11 | 148 | 0.0 | 4.8 | 0.00 | 0.00 | 0.00 | 91 | 1019.7 |
| 20260506152011 | 11 | 191 | 0.0 | 4.8 | 0.00 | 0.00 | 0.00 | 91 | 1019.8 |
| 20260506151517 | 11 | 205 | 1.6 | 4.8 | 0.00 | 0.00 | 0.00 | 90 | 1019.8 |
| 20260506151008 | 11 | 172 | 0.0 | 3.2 | 0.00 | 0.00 | 0.00 | 90 | 1019.9 |
| 20260506150509 | 11 | 186 | 0.0 | 0.0 | 0.00 | 0.00 | 0.00 | 90 | 1019.9 |
| 20260506150024 | 11 | 214 | 0.0 | 0.0 | 0.00 | 0.00 | 0.00 | 90 | 1020.1 |
| 20260506145508 | 12 | 117 | 0.0 | 1.6 | 0.00 | 0.00 | 0.00 | 90 | 1020.1 |
| 20260506145007 | 12 | 118 | 0.0 | 3.2 | 0.00 | 0.00 | 0.00 | 90 | 1019.8 |
| 20260506144526 | 11 | 167 | 1.6 | 3.2 | 0.00 | 0.00 | 0.00 | 89 | 1019.7 |
| 20260506144010 | 11 | 200 | 0.0 | 3.2 | 0.00 | 0.00 | 0.00 | 90 | 1019.6 |
| 20260506143510 | 11 | 176 | 0.0 | 3.2 | 0.00 | 0.00 | 0.00 | 90 | 1019.6 |
| 20260506143027 | 11 | 143 | 0.0 | 0.0 | 0.00 | 0.00 | 0.00 | 90 | 1019.6 |
| 20260506142510 | 11 | 179 | 0.0 | 0.0 | 0.00 | 0.00 | 0.00 | 90 | 1019.7 |
| 20260506142004 | 11 | 208 | 0.0 | 0.0 | 0.00 | 0.00 | 0.00 | 90 | 1019.6 |
| 20260506141514 | 11 | 163 | 0.0 | 0.0 | 0.00 | 0.00 | 0.00 | 90 | 1019.6 |
| 20260506141007 | 11 | 194 | 0.0 | 0.0 | 0.00 | 0.00 | 0.00 | 90 | 1019.6 |
| 20260506140508 | 11 | 243 | 0.0 | 0.0 | 0.00 | 0.00 | 0.00 | 91 | 1019.5 |
| 20260506140029 | 11 | 155 | 0.0 | 0.0 | 0.00 | 0.00 | 0.00 | 91 | 1019.5 |
| 20260506135509 | 11 | 167 | 0.0 | 0.0 | 0.00 | 0.00 | 0.00 | 91 | 1019.4 |
| 20260506135006 | 11 | 310 | 0.0 | 0.0 | 0.00 | 0.00 | 0.00 | 91 | 1019.4 |
| 20260506134524 | 11 | 310 | 0.0 | 0.0 | 0.00 | 0.00 | 0.00 | 91 | 1019.5 |
| 20260506134016 | 11 | 310 | 0.0 | 0.0 | 0.00 | 0.00 | 0.00 | 91 | 1019.5 |
| 20260506133508 | 11 | 310 | 0.0 | 0.0 | 0.00 | 0.00 | 0.00 | 91 | 1019.5 |
| 20260506133025 | 11 | 310 | 0.0 | 0.0 | 0.00 | 0.00 | 0.00 | 92 | 1019.5 |
| 20260506132513 | 11 | 310 | 0.0 | 0.0 | 0.00 | 0.00 | 0.00 | 92 | 1019.5 |
| 20260506132010 | 11 | 276 | 0.0 | 0.0 | 0.00 | 0.00 | 0.00 | 92 | 1019.3 |
| 20260506131531 | 11 | 276 | 0.0 | 0.0 | 0.00 | 0.00 | 0.00 | 92 | 1019.4 |
| 20260506131012 | 11 | 276 | 0.0 | 0.0 | 0.00 | 0.00 | 0.00 | 92 | 1019.4 |
| 20260506130509 | 11 | 276 | 0.0 | 0.0 | 0.00 | 0.00 | 0.00 | 92 | 1019.3 |
| 20260506130020 | 11 | 276 | 0.0 | 0.0 | 0.00 | 0.00 | 0.00 | 92 | 1019.2 |
| 20260506125506 | 11 | 275 | 0.0 | 0.0 | 0.00 | 0.00 | 0.00 | 92 | 1019.0 |
| 20260506125007 | 11 | 276 | 0.0 | 0.0 | 0.00 | 0.00 | 0.00 | 93 | 1018.9 |
| 20260506124520 | 11 | 276 | 0.0 | 0.0 | 0.00 | 0.00 | 0.00 | 93 | 1019.0 |
| 20260506124009 | 11 | 276 | 0.0 | 0.0 | 0.00 | 0.00 | 0.00 | 93 | 1018.8 |
| 20260506123510 | 11 | 275 | 0.0 | 0.0 | 0.00 | 0.00 | 0.00 | 93 | 1018.8 |
| 20260506123024 | 11 | 276 | 0.0 | 0.0 | 0.00 | 0.00 | 0.00 | 93 | 1018.8 |
| 20260506122509 | 11 | 276 | 0.0 | 0.0 | 0.00 | 0.00 | 0.00 | 93 | 1018.9 |
| 20260506122010 | 11 | 276 | 0.0 | 0.0 | 0.00 | 0.00 | 0.00 | 93 | 1018.9 |
| 20260506121527 | 11 | 276 | 0.0 | 0.0 | 0.00 | 0.00 | 0.00 | 93 | 1018.9 |
| 20260506121009 | 11 | 275 | 0.0 | 0.0 | 0.00 | 0.00 | 0.00 | 93 | 1019.1 |
| 20260506120507 | 11 | 276 | 0.0 | 0.0 | 0.00 | 0.00 | 0.00 | 93 | 1019.1 |
| 20260506120028 | 11 | 275 | 0.0 | 0.0 | 0.00 | 0.00 | 0.00 | 93 | 1018.9 |
| 20260506115510 | 11 | 276 | 0.0 | 0.0 | 0.00 | 0.00 | 0.00 | 93 | 1018.8 |
| 20260506115008 | 11 | 276 | 0.0 | 0.0 | 0.00 | 0.00 | 0.00 | 93 | 1018.7 |
| 20260506114524 | 11 | 276 | 0.0 | 0.0 | 0.00 | 0.00 | 0.00 | 93 | 1018.7 |
| 20260506114007 | 11 | 275 | 0.0 | 0.0 | 0.00 | 0.00 | 0.00 | 93 | 1018.7 |
| 20260506113506 | 11 | 276 | 0.0 | 0.0 | 0.00 | 0.00 | 0.00 | 93 | 1018.7 |
| 20260506113022 | 11 | 276 | 0.0 | 0.0 | 0.00 | 0.00 | 0.00 | 93 | 1018.6 |
| 20260506112509 | 11 | 232 | 0.0 | 0.0 | 0.00 | 0.00 | 0.00 | 93 | 1018.6 |
| 20260506112009 | 11 | 238 | 0.0 | 3.2 | 0.00 | 0.00 | 0.00 | 93 | 1018.5 |
| 20260506111530 | 11 | 212 | 0.0 | 3.2 | 0.00 | 0.00 | 0.00 | 93 | 1018.4 |
| 20260506111009 | 11 | 160 | 0.0 | 3.2 | 0.00 | 0.00 | 0.00 | 93 | 1018.3 |
| 20260506110503 | 11 | 148 | 0.0 | 3.2 | 0.00 | 0.00 | 0.00 | 93 | 1018.2 |
| 20260506110013 | 11 | 126 | 0.0 | 3.2 | 0.00 | 0.00 | 0.00 | 93 | 1018.2 |
| 20260506105505 | 10 | 199 | 0.0 | 0.0 | 0.00 | 0.00 | 0.00 | 93 | 1018.1 |
| 20260506105008 | 10 | 199 | 0.0 | 3.2 | 0.00 | 0.00 | 0.00 | 93 | 1018.1 |
| 20260506104517 | 10 | 199 | 0.0 | 3.2 | 0.00 | 0.00 | 0.00 | 93 | 1018.1 |
| 20260506104007 | 10 | 199 | 0.0 | 3.2 | 0.00 | 0.00 | 0.00 | 93 | 1017.9 |
| 20260506103507 | 10 | 199 | 0.0 | 3.2 | 0.00 | 0.00 | 0.00 | 93 | 1017.9 |
| 20260506103025 | 10 | 203 | 0.0 | 3.2 | 0.00 | 0.00 | 0.00 | 93 | 1017.9 |
| 20260506102507 | 10 | 203 | 0.0 | 3.2 | 0.00 | 0.00 | 0.00 | 93 | 1017.9 |
| 20260506102006 | 10 | 203 | 0.0 | 0.0 | 0.00 | 0.00 | 0.00 | 93 | 1017.9 |
| 20260506101524 | 10 | 161 | 0.0 | 0.0 | 0.00 | 0.00 | 0.00 | 93 | 1017.9 |
| 20260506101010 | 10 | 161 | 0.0 | 0.0 | 0.00 | 0.00 | 0.00 | 93 | 1017.9 |
| 20260506100507 | 10 | 161 | 0.0 | 0.0 | 0.00 | 0.00 | 0.00 | 94 | 1017.7 |
| 20260506100030 | 10 | 161 | 0.0 | 0.0 | 0.00 | 0.00 | 0.00 | 93 | 1017.7 |
| 20260506095511 | 10 | 161 | 0.0 | 0.0 | 0.00 | 0.00 | 0.00 | 94 | 1017.7 |
| 20260506095009 | 10 | 161 | 0.0 | 0.0 | 0.00 | 0.00 | 0.00 | 93 | 1017.7 |
| 20260506094517 | 10 | 161 | 0.0 | 0.0 | 0.00 | 0.00 | 0.00 | 93 | 1017.7 |
| 20260506094008 | 10 | 161 | 0.0 | 0.0 | 0.00 | 0.00 | 0.00 | 93 | 1017.6 |
| 20260506093507 | 10 | 165 | 0.0 | 0.0 | 0.00 | 0.00 | 0.00 | 93 | 1017.6 |
| 20260506093021 | 10 | 165 | 0.0 | 0.0 | 0.00 | 0.00 | 0.00 | 93 | 1017.6 |
| 20260506092507 | 10 | 165 | 0.0 | 0.0 | 0.00 | 0.00 | 0.00 | 93 | 1017.6 |
| 20260506092007 | 10 | 165 | 0.0 | 0.0 | 0.00 | 0.00 | 0.00 | 93 | 1017.6 |
| 20260506091526 | 10 | 165 | 0.0 | 0.0 | 0.00 | 0.00 | 0.00 | 93 | 1017.6 |
| 20260506091010 | 10 | 165 | 0.0 | 0.0 | 0.00 | 0.00 | 0.00 | 93 | 1017.6 |
| 20260506090507 | 10 | 165 | 0.0 | 0.0 | 0.00 | 0.00 | 0.00 | 93 | 1017.6 |
| 20260506090025 | 10 | 165 | 0.0 | 0.0 | 0.00 | 0.00 | 0.00 | 93 | 1017.6 |
| 20260506085510 | 10 | 165 | 0.0 | 0.0 | 0.00 | 0.00 | 0.00 | 93 | 1017.5 |
| 20260506085009 | 10 | 165 | 0.0 | 0.0 | 0.00 | 0.00 | 0.00 | 93 | 1017.5 |
| 20260506084535 | 10 | 165 | 0.0 | 0.0 | 0.00 | 0.00 | 0.00 | 92 | 1017.4 |
| 20260506084010 | 10 | 165 | 0.0 | 0.0 | 0.00 | 0.00 | 0.00 | 92 | 1017.4 |
| 20260506083506 | 10 | 165 | 0.0 | 0.0 | 0.00 | 0.00 | 0.00 | 92 | 1017.3 |
| 20260506083024 | 10 | 165 | 0.0 | 0.0 | 0.00 | 0.00 | 0.00 | 92 | 1017.3 |
| 20260506082506 | 10 | 165 | 0.0 | 0.0 | 0.00 | 0.00 | 0.00 | 92 | 1017.3 |
| 20260506082006 | 11 | 165 | 0.0 | 0.0 | 0.00 | 0.00 | 0.00 | 92 | 1017.3 |
| 20260506081503 | 11 | 165 | 0.0 | 0.0 | 0.00 | 0.00 | 0.00 | 92 | 1017.2 |
| 20260506081004 | 11 | 165 | 0.0 | 0.0 | 0.00 | 0.00 | 0.00 | 92 | 1017.2 |
| 20260506080503 | 11 | 165 | 0.0 | 0.0 | 0.00 | 0.00 | 0.00 | 92 | 1017.1 |
| 20260506073509 | 11 | 165 | 0.0 | 1.6 | 0.00 | 0.00 | 0.00 | 91 | 1016.8 |
| 20260506073015 | 11 | 165 | 0.0 | 1.6 | 0.00 | 0.00 | 0.00 | 90 | 1016.8 |
| 20260506072507 | 11 | 165 | 0.0 | 3.2 | 0.00 | 0.00 | 0.00 | 91 | 1016.8 |
| 20260506072008 | 11 | 165 | 0.0 | 3.2 | 0.00 | 0.00 | 0.00 | 91 | 1016.8 |
| 20260506071520 | 11 | 165 | 0.0 | 3.2 | 0.00 | 0.00 | 0.00 | 90 | 1016.8 |
| 20260506071009 | 11 | 202 | 0.0 | 0.0 | 0.00 | 0.00 | 0.00 | 90 | 1016.8 |
| 20260506070507 | 11 | 202 | 0.0 | 0.0 | 0.00 | 0.00 | 0.00 | 89 | 1016.7 |